Frederick, MD

11:58 AM EST on February 19, 2017 (GMT -0500)
Frederick Municipal

Weather History for KFDK - November, 2013

Change the Weather History Date:

Thursday, November 28, 2013

  Actual Average (KHGR) Record (KHGR)
Temperature  
Mean Temperature 32 °F -  
Max Temperature 37 °F 47 °F 69 °F (1998)
Min Temperature 26 °F 32 °F 19 °F (1996)
Degree Days  
Heating Degree Days 34    
Moisture  
Dew Point 20 °F    
Average Humidity 66    
Maximum Humidity 86    
Minimum Humidity 41    
Precipitation  
Precipitation 0.00 in - - ()
Sea Level Pressure  
Sea Level Pressure 30.32 in    
Wind  
Wind Speed 10 mph (WNW)    
Max Wind Speed 18 mph    
Max Gust Speed 30 mph    
Visibility 10 miles    
Events      
Averages and records for this station are not official NWS values.
T = Trace of Precipitation, MM = Missing Value Source: NWS Daily Summary

Daily Weather History Graph

Daily Weather History Graph

Search for Another Location

Airport or City:

Trip Planner

Search our weather history database for the weather conditions in past years. The results will help you decide how hot, cold, wet, or windy it might be!

Date:

Astronomy

Nov. 28, 2013 Rise Set
Actual Time 7:07 AM EST 4:47 PM EST
Civil Twilight 6:38 AM EST 5:16 PM EST
Nautical Twilight 6:04 AM EST 5:49 PM EST
Astronomical Twilight 5:32 AM EST 6:22 PM EST
Moon 2:09 AM EST (11/28) 1:54 PM EST (11/28)
Length of Visible Light 10h 38m
Length of Day
9h 39m
Waning Crescent, 22% of the Moon is Illuminated
Nov 28
Waning Crescent
Dec 2
New
Dec 9
First Quarter
Dec 17
Full
Dec 25
Last Quarter

Hourly Weather History & Observations

Time (EST) Temp. Windchill Dew Point Humidity Pressure Visibility Wind Dir Wind Speed Gust Speed Precip Events Conditions
12:05 AM 30.2 °F 21.3 °F 19.4 °F 64% 30.07 in 10.0 mi West 10.4 mph 17.3 mph N/A   Overcast
12:25 AM 30.2 °F 21.3 °F 19.4 °F 64% 30.08 in 10.0 mi West 10.4 mph 19.6 mph N/A   Overcast
12:45 AM 30.2 °F 18.1 °F 19.4 °F 64% 30.09 in 10.0 mi West 18.4 mph 25.3 mph N/A   Overcast
1:05 AM 30.2 °F 18.5 °F 19.4 °F 64% 30.10 in 10.0 mi WNW 17.3 mph 25.3 mph N/A   Overcast
1:25 AM 30.2 °F 19.3 °F 19.4 °F 64% 30.11 in 10.0 mi WNW 15.0 mph 26.5 mph N/A   Overcast
1:45 AM 30.2 °F 19.8 °F 19.4 °F 64% 30.12 in 10.0 mi WNW 13.8 mph 23.0 mph N/A   Overcast
2:05 AM 30.2 °F 18.9 °F 17.6 °F 60% 30.15 in 10.0 mi WNW 16.1 mph 23.0 mph N/A   Overcast
2:25 AM 30.2 °F 18.5 °F 17.6 °F 60% 30.16 in 10.0 mi WNW 17.3 mph 24.2 mph N/A   Overcast
2:45 AM 30.2 °F 20.2 °F 17.6 °F 60% 30.18 in 10.0 mi WNW 12.7 mph 19.6 mph N/A   Overcast
3:05 AM 30.2 °F 19.8 °F 17.6 °F 60% 30.18 in 10.0 mi WNW 13.8 mph 19.6 mph N/A   Overcast
3:25 AM 30.2 °F 19.8 °F 17.6 °F 60% 30.19 in 10.0 mi West 13.8 mph 24.2 mph N/A   Overcast
3:45 AM 28.4 °F 16.6 °F 17.6 °F 64% 30.19 in 10.0 mi WNW 16.1 mph 25.3 mph N/A   Overcast
4:05 AM 30.2 °F 18.5 °F 17.6 °F 60% 30.20 in 10.0 mi WNW 17.3 mph 29.9 mph N/A   Mostly Cloudy
4:25 AM 28.4 °F 17.5 °F 17.6 °F 64% 30.21 in 10.0 mi WNW 13.8 mph 19.6 mph N/A   Mostly Cloudy
4:45 AM 28.4 °F 20.4 °F 17.6 °F 64% 30.22 in 10.0 mi WNW 8.1 mph 17.3 mph N/A   Mostly Cloudy
5:05 AM 28.4 °F 19.1 °F 17.6 °F 64% 30.23 in 10.0 mi WNW 10.4 mph 17.3 mph N/A   Mostly Cloudy
5:25 AM 28.4 °F 20.4 °F 17.6 °F 64% 30.25 in 10.0 mi WNW 8.1 mph 16.1 mph N/A   Mostly Cloudy
5:40 AM 28.4 °F 18.5 °F 17.6 °F 64% 30.27 in 10.0 mi West 11.5 mph 18.4 mph N/A   Scattered Clouds
6:50 AM 26.6 °F 16.8 °F 15.8 °F 64% 30.31 in 10.0 mi WNW 10.4 mph 18.4 mph N/A   Clear
7:50 AM 28.4 °F 21.2 °F 15.8 °F 59% 30.35 in 10.0 mi West 6.9 mph - N/A   Clear
8:50 AM 30.2 °F 21.3 °F 17.6 °F 60% 30.39 in 10.0 mi WNW 10.4 mph 20.7 mph N/A   Clear
9:50 AM 32.0 °F 23.0 °F 17.6 °F 55% 30.40 in 10.0 mi WNW 11.5 mph 19.6 mph N/A   Clear
10:50 AM 33.8 °F 25.3 °F 17.6 °F 52% 30.42 in 10.0 mi WNW 11.5 mph 17.3 mph N/A   Clear
11:47 AM 35.6 °F 27.5 °F 15.8 °F 44% 30.40 in 10.0 mi WNW 11.5 mph 18.4 mph N/A   Clear
12:50 PM 35.6 °F 26.2 °F 15.8 °F 44% 30.40 in 10.0 mi WNW 15.0 mph 18.4 mph N/A   Clear
1:50 PM 37.4 °F 30.3 °F 15.8 °F 41% 30.38 in 10.0 mi NW 10.4 mph - N/A   Clear
3:50 PM 35.6 °F 30.7 °F 17.6 °F 48% 30.40 in 10.0 mi WNW 5.8 mph - N/A   Clear
4:50 PM 30.2 °F 25.4 °F 19.4 °F 64% 30.43 in 10.0 mi Variable 4.6 mph - N/A   Clear
5:50 PM 28.4 °F - 21.2 °F 74% 30.44 in 10.0 mi Calm Calm - N/A   Mostly Cloudy
7:45 PM 28.4 °F - 24.8 °F 86% 30.47 in 10.0 mi Calm Calm - N/A   Overcast
7:50 PM 28.4 °F - 24.8 °F 86% 30.48 in 10.0 mi Calm Calm - N/A   Mostly Cloudy
8:05 PM 30.2 °F - 24.8 °F 80% 30.48 in 10.0 mi Calm Calm - N/A   Overcast
8:25 PM 30.2 °F - 23.0 °F 75% 30.48 in 10.0 mi Calm Calm - N/A   Overcast
8:45 PM 30.2 °F - 26.6 °F 86% 30.48 in 10.0 mi Calm Calm - N/A   Overcast
9:10 PM 30.2 °F - 26.6 °F 86% 30.48 in 10.0 mi Calm Calm - N/A   Overcast
10:10 PM 30.2 °F - 26.6 °F 86% 30.49 in 10.0 mi Calm Calm - N/A   Overcast
10:30 PM 30.2 °F - 26.6 °F 86% 30.49 in 10.0 mi Calm Calm - N/A   Overcast
10:50 PM 32.0 °F - 26.6 °F 80% 30.50 in 10.0 mi Calm Calm - N/A   Overcast
11:10 PM 32.0 °F - 26.6 °F 80% 30.50 in 10.0 mi Calm Calm - N/A   Overcast
11:30 PM 32.0 °F - 26.6 °F 80% 30.50 in 10.0 mi Calm Calm - N/A   Overcast
11:50 PM 32.0 °F - 26.6 °F 80% 30.50 in 10.0 mi Calm Calm - N/A   Overcast